Location: Unspecified
(0.0000°N, 0.0000°E)
Time: 17:59:19
(UTC+00:00)

STARLINK 1058 - Pass Details

Date: 20 January 2020
Orbit: 548 x 551 km, 53.0° (Epoch: 17 January)

Event Time Altitude Azimuth Distance (km) Brightness Sun altitude
Rises 05:31:10 0° 213° (SSW) 2,714 7.0 -9.3°
Reaches altitude 10° 05:33:24 10° 212° (SSW) 1,818 6.2 -8.8°
Maximum altitude 05:37:33 82° 124° (ESE) 555 3.7 -7.8°
Drops below altitude 10° 05:41:39 10° 36° (NE) 1,809 6.5 -6.8°
Sets 05:43:53 0° 35° (NE) 2,699 7.4 -6.3°
